Home > Weather > Timmins > Past weeks

Flag for Canada Past Weather in Timmins, Ontario, Canada — Yesterday and Last 2 Weeks

Now
61 °F

Partly sunny.


Feels Like: 61 °F
Forecast: 51 / 69 °F
Wind: 8 mph from Northwest

Location: Timmins

Current Time: Jul 28, 2016 at 10:40:51 AM

Latest Report: Jul 28, 2016 at 10:00 AM


Visibility: 15 mi

Pressure: 30.04 "Hg

Humidity: 72%

Dew Point: 52 °F

Location of TimminsLocation

Past Weather in Timmins — Graph

°F

Timmins Temperature Yesterday

Maximum temperature yesterday: 73 °F (at 3:00 PM)
Minimum temperature yesterday: 55 °F (at 6:00 AM)
Average temperature yesterday: 65 °F

High & Low Weather Summary for the Past Weeks

 TemperatureHumidityPressure
High86 °F (Jul 13, 3:00 PM)100% (Jul 14, 3:00 AM)30.23 "Hg (Jul 14, 3:00 AM)
Low43 °F (Jul 16, 4:00 AM)38% (Jul 13, 4:00 PM)29.49 "Hg (Jul 14, 7:00 AM)
Average65 °F80%29.88 "Hg
* Reported Jul 13 9:00 AM — Jul 28 9:00 AM, Timmins, Weather by CustomWeather, © 2016

Note: Actual official high and low records may vary slightly from our data, if they occured in-between our weather recording intervals... More about our weather records

Advertising

Timmins Weather History for the Previous 24 Hours

Scroll right to see more
 ConditionsComfort  
Time TempWeatherWind HumidityBarometerVisibility
9:00 AM
Thu, Jul 28
59 °FBroken clouds.9 mph82%30.04 "Hg15 mi
8:00 AM57 °FScattered clouds.8 mph82%30.03 "Hg15 mi
7:00 AM52 °FScattered clouds.6 mph94%30.03 "Hg15 mi
6:00 AM50 °FPassing clouds.5 mph94%30.01 "Hg15 mi
5:00 AM52 °FPartly cloudy.5 mph94%30.01 "Hg15 mi
4:00 AM50 °FPassing clouds.6 mph100%30.00 "Hg15 mi
3:00 AM52 °FPassing clouds.5 mph94%29.99 "Hg15 mi
2:00 AM55 °FPassing clouds.7 mph88%29.99 "Hg15 mi
1:00 AM55 °FPassing clouds.7 mph88%29.97 "Hg15 mi
12:00 AM57 °FPassing clouds.6 mph82%29.96 "Hg15 mi
11:00 PM
Wed, Jul 27
59 °FPassing clouds.6 mph82%29.95 "Hg15 mi
10:00 PM57 °FPassing clouds.5 mph88%29.95 "Hg15 mi
9:00 PM63 °FScattered clouds.5 mph77%29.95 "Hg15 mi
8:00 PM70 °FScattered clouds.6 mph57%29.94 "Hg15 mi
7:00 PM72 °FBroken clouds.7 mph50%29.94 "Hg15 mi
6:00 PM72 °FPartly sunny.6 mph53%29.94 "Hg15 mi
5:00 PM73 °FPartly sunny.10 mph44%29.94 "Hg15 mi
4:00 PM72 °FPartly sunny.7 mph53%29.95 "Hg15 mi
3:00 PM73 °FBroken clouds.9 mph47%29.93 "Hg15 mi
2:00 PM72 °FBroken clouds.12 mph53%29.94 "Hg15 mi
1:00 PM70 °FBroken clouds.16 mph53%29.94 "Hg15 mi
12:00 PM68 °FBroken clouds.12 mph60%29.94 "Hg15 mi
11:00 AM68 °FBroken clouds.13 mph60%29.94 "Hg15 mi
10:00 AM66 °FPartly sunny.9 mph73%29.94 "Hg15 mi
Weather by CustomWeather, © 2016

See weather overviewHow to use our weather pages